Home > Weather > Sochi > Past weeks

Flag for Russia Weather for the Past 2 Weeks in Sochi, Russia

Now
54 °F

Overcast.


Feels Like: 51 °F
Forecast: 44 / 52 °F
Wind: 8 mph from Southeast

Location: Adler

Current Time: Feb 11, 2016 at 6:28:00 PM

Latest Report: Feb 11, 2016 at 6:00 PM


Visibility: N/A

Pressure: 29.98 "Hg

Humidity: 30%

Dew point: 23 °F

Location of SochiLocation

Historic Weather in Sochi — Graph

°F

Sochi Temperature Yesterday

Maximum temperature yesterday: 52 °F (at 1:30 PM)
Minimum temperature yesterday: 34 °F (at 4:30 AM)
Average temperature yesterday: 42 °F

High & Low Weather Summary for the Past Weeks

 TemperatureHumidityPressure
High61 °F (Feb 4, 2:00 PM)100% (Feb 9, 5:30 AM)30.45 "Hg (Feb 9, 5:30 AM)
Low32 °F (Jan 28, 6:30 AM)35% (Feb 10, 2:00 PM)29.77 "Hg (Feb 5, 10:30 PM)
Average44 °F73%30.18 "Hg
* Reported Jan 27 5:00 PM — Feb 11 5:00 PM, Sochi, Weather by CustomWeather, © 2016

Note: Actual official high and low records may vary slightly from our data, if they occured in-between our weather recording intervals... More about our weather records

Advertising

Sochi Weather History for the Previous 24 Hours

 ConditionsComfort  
Time TempWeatherWind HumidityBarometerVisibility
5:00 PM
Thu, Feb 11
52 °FClear.8 mph38%29.95 "HgN/A
4:30 PM52 °FClear.10 mph44%29.98 "HgN/A
4:00 PM52 °FClear.10 mph38%29.98 "HgN/A
3:30 PM54 °FClear.8 mph35%29.98 "HgN/A
3:00 PM52 °FClear.15 mph41%29.95 "HgN/A
2:30 PM52 °FClear.13 mph38%29.98 "HgN/A
2:00 PM50 °FClear.17 mph47%29.98 "HgN/A
1:30 PM50 °FClear.20 mph47%29.98 "HgN/A
1:00 PM50 °FClear.15 mph47%29.98 "HgN/A
12:30 PM50 °FClear.8 mph47%29.98 "HgN/A
12:00 PM50 °FClear.13 mph43%29.98 "HgN/A
11:30 AM48 °FClear.13 mph46%29.98 "HgN/A
11:00 AM48 °FClear.13 mph46%30.01 "HgN/A
10:30 AM48 °FClear.10 mph46%30.01 "HgN/A
10:00 AM46 °FClear.10 mph50%30.01 "HgN/A
9:30 AM45 °FClear.6 mph53%30.01 "HgN/A
9:00 AM39 °FClear.8 mph61%30.04 "HgN/A
8:30 AM36 °FClear.8 mph70%30.04 "HgN/A
8:00 AM36 °FClear.8 mph70%30.04 "HgN/A
7:30 AM34 °FClear.8 mph75%30.04 "HgN/A
7:00 AM34 °FClear.8 mph75%30.04 "HgN/A
6:30 AM36 °FClear.8 mph70%30.04 "HgN/A
5:30 AM36 °FClear.13 mph70%30.04 "HgN/A
5:00 AM36 °FClear.13 mph70%30.01 "HgN/A
4:30 AM36 °FClear.10 mph70%30.01 "HgN/A
4:00 AM36 °FClear.13 mph75%30.04 "HgN/A
3:30 AM36 °FClear.15 mph75%30.04 "HgN/A
3:00 AM37 °FClear.10 mph70%30.04 "HgN/A
2:30 AM36 °FClear.13 mph75%30.04 "HgN/A
2:00 AM37 °FClear.10 mph70%30.04 "HgN/A
1:30 AM37 °FClear.8 mph70%30.04 "HgN/A
1:00 AM37 °FClear.10 mph70%30.04 "HgN/A
12:30 AM37 °FClear.10 mph70%30.04 "HgN/A
12:00 AM37 °FClear.8 mph70%30.04 "HgN/A
11:30 PM
Wed, Feb 10
39 °FClear.8 mph70%30.04 "HgN/A
11:00 PM39 °FClear.8 mph70%30.07 "HgN/A
10:30 PM39 °FClear.8 mph70%30.07 "HgN/A
10:00 PM39 °FClear.8 mph70%30.07 "HgN/A
9:30 PM39 °FClear.8 mph70%30.07 "HgN/A
9:00 PM39 °FClear.8 mph70%30.07 "HgN/A
8:30 PM41 °FClear.6 mph66%30.09 "HgN/A
8:00 PM41 °FClear.8 mph66%30.09 "HgN/A
7:30 PM43 °FClear.8 mph66%30.09 "HgN/A
7:00 PM41 °FClear.6 mph70%30.09 "HgN/A
6:30 PM43 °FClear.6 mph71%30.09 "HgN/A
6:00 PM45 °FClear.1 mph61%30.09 "HgN/A
Weather by CustomWeather, © 2016

See weather overviewHow to use our weather pages